Location: Unspecified
(0.0000°N, 0.0000°E)
Time: 16:48:52
(UTC+00:00)

Vanguard 3 - All Passes

Search period start: 18 July 2024 00:00
Search period end: 28 July 2024 00:00
Orbit: 508 x 3230 km, 33.4° (Epoch: 17 July)

Date Brightness Start Highest point End Pass type
(mag) Time Alt. Az. Time Alt. Az. Time Alt. Az.
18 Jul - 01:46:17 10° NW 01:56:58 20° NNW 02:09:34 10° NNE visible
18 Jul - 04:07:57 10° NNW 04:19:45 18° N 04:30:49 10° NE visible
18 Jul - 06:25:13 10° NNW 06:40:35 31° NNE 06:51:33 10° E daylight
18 Jul - 08:41:26 10° NW 08:57:01 72° NNE 09:05:41 10° ESE daylight
18 Jul - 11:00:21 10° W 11:09:23 30° SW 11:15:06 10° SSE daylight
18 Jul - 19:58:49 10° SSW 20:04:27 39° SE 20:13:53 10° ENE visible
18 Jul - 22:08:57 10° WSW 22:17:04 55° NNW 22:31:24 10° NE visible
19 Jul - 00:24:02 10° WNW 00:33:56 25° NNW 00:47:24 10° NNE visible
19 Jul - 02:44:50 10° NW 02:55:18 17° N 03:06:27 10° NE visible
19 Jul - 05:03:37 10° NNW 05:17:48 24° NNE 05:29:39 10° ENE visible
19 Jul - 07:19:38 10° NW 07:36:27 48° NNE 07:46:59 10° E daylight
19 Jul - 09:36:57 10° WNW 09:50:52 63° SW 09:58:34 10° SE daylight
19 Jul - 12:01:07 10° SW 12:02:29 10° SW 12:03:44 10° SSW daylight
19 Jul - 18:43:40 10° SSE 18:46:29 14° SE 18:49:57 10° ESE visible
19 Jul - 20:51:03 10° SW 20:57:36 89° SSE 21:09:42 10° NE visible
19 Jul - 23:03:31 10° W 23:12:12 33° NNW 23:25:44 10° NE visible
20 Jul - 01:21:44 10° NW 01:31:15 18° N 01:42:41 10° NNE visible
20 Jul - 03:41:50 10° NNW 03:53:55 19° N 04:05:38 10° NE visible
20 Jul - 05:58:08 10° NW 06:14:42 35° NNE 06:26:51 10° E daylight
20 Jul - 08:14:23 10° NW 08:31:19 79° NE 08:40:56 10° ESE daylight
20 Jul - 10:34:01 10° W 10:44:01 30° SW 10:50:22 10° SSE daylight
20 Jul - 19:34:09 10° SSW 19:39:15 41° SE 19:47:41 10° ENE visible
20 Jul - 21:44:27 10° W 21:51:42 48° NNW 22:04:22 10° NE visible
20 Jul - 23:59:43 10° WNW 00:08:22 22° NNW 00:20:05 10° NNE visible
21 Jul - 02:19:42 10° NNW 02:29:33 17° N 02:40:19 10° NE visible
21 Jul - 04:36:54 10° NNW 04:51:49 26° NNE 05:04:44 10° ENE visible
21 Jul - 06:52:29 10° NW 07:10:32 54° NNE 07:22:10 10° ESE daylight
21 Jul - 09:10:08 10° WNW 09:25:12 60° SW 09:33:46 10° SE daylight
21 Jul - 11:34:48 10° WSW 11:37:18 11° SW 11:39:30 10° SSW daylight
21 Jul - 18:18:55 10° SSE 18:21:24 14° SE 18:24:24 10° ESE daylight
21 Jul - 20:26:29 10° WSW 20:32:22 82° NNW 20:43:05 10° NE visible
21 Jul - 22:39:12 10° WNW 22:46:48 28° NNW 22:58:27 10° NNE visible
22 Jul - 00:57:23 10° NW 01:05:38 16° N 01:15:35 10° NNE visible
22 Jul - 03:15:50 10° NNW 03:28:01 20° NNE 03:40:16 10° NE visible
22 Jul - 05:31:09 10° NW 05:48:36 38° NNE 06:01:54 10° E visible
22 Jul - 07:47:20 10° NW 08:05:23 85° NE 08:16:03 10° SE daylight
22 Jul - 10:07:32 10° W 10:18:30 30° SW 10:25:33 10° SSE daylight
22 Jul - 19:09:27 10° SSW 19:14:06 43° SE 19:21:38 10° ENE visible
22 Jul - 21:20:01 10° W 21:26:27 40° NNW 21:37:23 10° NE visible
22 Jul - 23:35:35 10° NW 23:42:54 18° NNW 23:52:37 10° NNE visible
23 Jul - 01:54:41 10° NNW 02:03:48 16° N 02:14:01 10° NE visible
23 Jul - 04:10:19 10° NNW 04:25:41 28° NNE 04:39:36 10° ENE visible
23 Jul - 06:25:25 10° NW 06:44:22 59° NNE 06:57:10 10° ESE daylight
23 Jul - 08:43:14 10° WNW 08:59:21 57° SW 09:08:50 10° SE daylight
23 Jul - 11:08:27 10° WSW 11:12:01 12° SW 11:15:03 10° SSW daylight
23 Jul - 17:54:03 10° S 17:56:21 14° SE 17:59:03 10° ESE daylight
23 Jul - 20:01:55 10° WSW 20:07:13 71° NNW 20:16:35 10° NE visible
23 Jul - 22:15:00 10° WNW 22:21:31 23° NNW 22:31:07 10° NNE visible
24 Jul - 00:33:16 10° NNW 00:40:06 14° N 00:48:15 10° NNE visible
24 Jul - 02:49:55 10° NNW 03:02:01 20° NNE 03:14:41 10° ENE visible
24 Jul - 05:04:17 10° NW 05:22:18 41° NNE 05:36:46 10° E visible
24 Jul - 07:20:16 10° NW 07:39:14 89° SW 07:51:01 10° SE daylight
24 Jul - 09:40:55 10° W 09:52:51 30° SW 10:00:38 10° SSE daylight
24 Jul - 18:44:46 10° SW 18:49:02 47° SE 18:55:43 10° ENE visible
24 Jul - 20:55:40 10° W 21:01:18 33° NNW 21:10:27 10° NE visible
24 Jul - 23:11:46 10° NW 23:17:33 15° N 23:24:55 10° NNE visible
25 Jul - 01:29:45 10° NNW 01:38:04 15° N 01:47:33 10° NE visible
25 Jul - 03:43:53 10° NNW 03:59:25 29° NNE 04:14:13 10° ENE visible
25 Jul - 05:58:26 10° NW 06:18:00 64° NE 06:31:58 10° ESE daylight
25 Jul - 08:16:17 10° WNW 08:33:19 55° SW 08:43:47 10° SE daylight
25 Jul - 10:42:01 10° WSW 10:46:38 13° SW 10:50:28 10° SSW daylight
25 Jul - 17:29:03 10° S 17:31:17 14° SE 17:33:53 10° ESE daylight
25 Jul - 19:37:24 10° WSW 19:42:10 58° NNW 19:50:11 10° NE visible
25 Jul - 21:51:01 10° WNW 21:56:20 19° NNW 22:03:42 10° NNE visible
26 Jul - 00:09:29 10° NNW 00:14:37 13° N 00:20:35 10° NNE visible
26 Jul - 02:24:06 10° NNW 02:35:58 21° NNE 02:48:53 10° ENE visible
26 Jul - 04:37:34 10° NW 04:55:49 45° NNE 05:11:23 10° E visible
26 Jul - 06:53:15 10° NW 07:12:52 85° SW 07:25:48 10° SE daylight
26 Jul - 09:14:13 10° W 09:27:03 30° SW 09:35:38 10° SSE daylight
26 Jul - 18:20:02 10° SW 18:24:00 54° SE 18:29:56 10° ENE visible
26 Jul - 20:31:25 10° WNW 20:36:15 26° NNW 20:43:35 10° NNE visible
26 Jul - 22:48:30 10° NNW 22:52:17 12° N 22:56:46 10° NNE visible
27 Jul - 01:04:55 10° NNW 01:12:20 14° NNE 01:20:55 10° NE visible
27 Jul - 03:17:35 10° NNW 03:33:02 31° NNE 03:48:35 10° E visible
27 Jul - 05:31:34 10° NW 05:51:24 68° NE 06:06:35 10° ESE visible
27 Jul - 07:49:21 10° WNW 08:07:05 53° SW 08:18:34 10° SE daylight
27 Jul - 10:15:30 10° WSW 10:21:09 14° SW 10:25:46 10° S daylight
27 Jul - 17:03:55 10° S 17:06:15 15° SE 17:08:52 10° ESE daylight
27 Jul - 19:12:53 10° WSW 19:17:10 46° NNW 19:23:55 10° NE visible
27 Jul - 21:27:23 10° NW 21:31:13 14° NNW 21:36:06 10° NNE visible
27 Jul - 23:46:33 10° N 23:49:12 11° N 23:52:05 10° NNE visible
